Location: Al Mulaqqa?ah
(24.1833°N, 32.8833°E)
Time: 20:18:57
(UTC+00:00)

NOSS 3-2 (A) - Pass Details

Date: 26 September 2021
Orbit: 767 x 1440 km, 63.4° (Epoch: 19 October)

Event Time Altitude Azimuth Distance (km) Brightness Sun altitude
Rises 17:00:56 0° 215° (SW) 3,220 6.6 -19.1°
Reaches altitude 10° 17:03:18 10° 219° (SW) 2,306 5.9 -19.7°
Maximum altitude 17:08:26 59° 299° (WNW) 928 3.6 -20.8°
Drops below altitude 10° 17:14:04 10° 18° (NNE) 2,527 5.6 -22.1°
Sets 17:16:46 0° 22° (NNE) 3,557 6.3 -22.7°
